Location: ??????
(41.3794°N, 22.5014°E)
Time: 07:47:49
(UTC+00:00)

Cosmos 1782 - Pass Details

Date: 30 November 2020
Orbit: 537 x 550 km, 82.5° (Epoch: 17 January)

Event Time Altitude Azimuth Distance (km) Brightness Sun altitude
Rises 16:24:22 0° 189° (S) 2,681 6.7 -15.2°
Reaches altitude 10° 16:26:30 10° 191° (S) 1,796 5.8 -15.6°
Maximum altitude 16:30:27 78° 278° (W) 559 2.9 -16.3°
Drops below altitude 10° 16:34:27 10° 5° (N) 1,818 5.3 -17.0°
Enters shadow 16:35:29 - 6° (N) 2,240 5.7 -17.2°
